Le nostre stazioni meteo in Italia

Pubblicità
Il mio iltempo24.it
Comiso, Italia (16475): Temperatura & dewpoint: 01.12.2019 11:00:00 - 07.12.2019 11:00:00 (CET)Comiso, Italia (16475): velocità del vento: 01.12.2019 11:00:00 - 07.12.2019 11:00:00 (CET)Comiso, Italia (16475): direzione del vento: 01.12.2019 11:00:00 - 07.12.2019 11:00:00 (CET)Comiso, Italia (16475): visibility: 01.12.2019 11:00:00 - 07.12.2019 11:00:00 (CET)
Data & Tempo tt [°C] td [°C] ff [km/h] ff [kn] dd vv [km]
07.12.2019 11:00:00 - - - - - -
07.12.2019 10:00:00 17,0 10,0 4 2 - 10
07.12.2019 09:00:00 13,0 10,0 2 1 - 10
07.12.2019 08:00:00 7,0 6,0 4 2 - 10
07.12.2019 07:00:00 7,0 5,0 4 2 - 10
07.12.2019 06:00:00 7,0 6,0 9 5 ENE 9
07.12.2019 05:00:00 7,0 6,0 5 3 E 9
07.12.2019 04:00:00 7,0 7,0 8 4 E 8
07.12.2019 03:00:00 8,0 7,0 5 3 E 10
07.12.2019 02:00:00 8,0 7,0 8 4 ESE 10
07.12.2019 01:00:00 8,0 7,0 4 2 - 10
07.12.2019 00:00:00 8,0 7,0 5 3 E 9
06.12.2019 23:00:00 9,0 8,0 5 3 ESE 10
06.12.2019 22:00:00 11,0 10,0 4 2 - 10
06.12.2019 21:00:00 12,0 11,0 4 2 - 10
06.12.2019 20:00:00 12,0 11,0 4 2 - 10
06.12.2019 19:00:00 12,0 11,0 4 2 - 10
06.12.2019 18:00:00 14,0 12,0 4 2 - 10
06.12.2019 17:00:00 15,0 12,0 9 5 OSO 10
06.12.2019 16:00:00 17,0 12,0 13 7 O 10
06.12.2019 15:00:00 18,0 12,0 13 7 O 10
06.12.2019 14:00:00 - - - - - -
06.12.2019 13:00:00 - - - - - -
06.12.2019 12:00:00 18,0 13,0 11 6 O 10
06.12.2019 11:00:00 19,0 13,0 5 3 - 10
06.12.2019 10:00:00 18,0 13,0 2 1 - 10
06.12.2019 09:00:00 16,0 13,0 2 1 - 10
06.12.2019 08:00:00 12,0 12,0 5 3 ESE 10
06.12.2019 07:00:00 12,0 11,0 2 1 ENE 9
06.12.2019 06:00:00 12,0 11,0 4 2 ENE 8
06.12.2019 05:00:00 12,0 11,0 8 4 ENE 9
06.12.2019 04:00:00 11,0 10,0 4 2 ENE 9
06.12.2019 03:00:00 13,0 11,0 5 3 ENE 10
06.12.2019 02:00:00 13,0 11,0 5 3 ESE 9
06.12.2019 01:00:00 13,0 11,0 4 2 - 8
06.12.2019 00:00:00 13,0 12,0 4 2 - 10
05.12.2019 23:00:00 13,0 12,0 5 3 NNE 10
05.12.2019 22:00:00 14,0 12,0 8 4 NE 10
05.12.2019 21:00:00 14,0 12,0 9 5 NE 10
05.12.2019 20:00:00 15,0 13,0 4 2 - 10
05.12.2019 19:00:00 - - - - - -
05.12.2019 18:00:00 15,0 13,0 9 5 NNE 10
05.12.2019 17:00:00 16,0 13,0 11 6 NNE 10
05.12.2019 16:00:00 17,0 14,0 13 7 NNE 10
05.12.2019 15:00:00 17,0 13,0 18 10 NNE 10
05.12.2019 14:00:00 19,0 13,0 8 4 NNE 10
05.12.2019 13:00:00 - - - - - -
05.12.2019 12:00:00 18,0 13,0 15 8 NNE 10
05.12.2019 11:00:00 18,0 13,0 11 6 NE 10
05.12.2019 10:00:00 18,0 13,0 9 5 NNE 10
05.12.2019 09:00:00 17,0 12,0 5 3 - 10
05.12.2019 08:00:00 14,0 11,0 9 5 NNO 10
05.12.2019 07:00:00 15,0 10,0 16 9 NE 10
05.12.2019 06:00:00 13,0 10,0 18 10 NNE 10
05.12.2019 05:00:00 13,0 10,0 9 5 ENE 10
05.12.2019 04:00:00 13,0 10,0 15 8 ENE 10
05.12.2019 03:00:00 13,0 9,0 8 4 OSO 10
05.12.2019 02:00:00 14,0 9,0 11 6 O 10
05.12.2019 01:00:00 15,0 9,0 11 6 - 10
05.12.2019 00:00:00 14,0 10,0 29 16 ESE 10
04.12.2019 23:00:00 14,0 10,0 35 19 E 10
04.12.2019 22:00:00 15,0 9,0 16 9 SE 10
04.12.2019 21:00:00 14,0 9,0 28 15 ESE 10
04.12.2019 20:00:00 14,0 9,0 11 6 - 10
04.12.2019 19:00:00 14,0 10,0 13 7 E 10
04.12.2019 18:00:00 - - - - - -
04.12.2019 17:00:00 - - - - - -
04.12.2019 16:00:00 15,0 10,0 26 14 E 10
04.12.2019 15:00:00 15,0 10,0 24 13 ESE 10
04.12.2019 14:00:00 16,0 11,0 34 18 ESE 10
04.12.2019 13:00:00 16,0 11,0 31 17 ESE 10
04.12.2019 12:00:00 16,0 10,0 28 15 E 10
04.12.2019 11:00:00 16,0 11,0 28 15 E 10
04.12.2019 10:00:00 16,0 11,0 26 14 ESE 10
04.12.2019 09:00:00 - - - - - -
04.12.2019 08:00:00 15,0 11,0 24 13 E 10
04.12.2019 07:00:00 14,0 11,0 22 12 E 10
04.12.2019 06:00:00 14,0 11,0 18 10 E 10
04.12.2019 05:00:00 14,0 11,0 15 8 E 10
04.12.2019 04:00:00 14,0 11,0 5 3 - 10
04.12.2019 03:00:00 12,0 10,0 2 1 - 10
04.12.2019 02:00:00 10,0 8,0 5 3 E 10
04.12.2019 01:00:00 10,0 8,0 4 2 NNE 10
04.12.2019 00:00:00 10,0 9,0 8 4 ENE 10
03.12.2019 23:00:00 11,0 9,0 5 3 ENE 10
03.12.2019 22:00:00 12,0 10,0 9 5 ENE 10
03.12.2019 21:00:00 12,0 10,0 9 5 ENE 10
03.12.2019 20:00:00 13,0 11,0 5 3 ENE 10
03.12.2019 19:00:00 14,0 12,0 5 3 NE 10
03.12.2019 18:00:00 16,0 13,0 5 3 N 10
03.12.2019 17:00:00 19,0 13,0 8 4 ESE 10
03.12.2019 16:00:00 21,0 14,0 9 5 ESE 10
03.12.2019 15:00:00 22,0 14,0 8 4 - 10
03.12.2019 14:00:00 22,0 13,0 13 7 ESE 10
03.12.2019 13:00:00 22,0 14,0 13 7 E 10
03.12.2019 12:00:00 21,0 14,0 16 9 E 10
03.12.2019 11:00:00 21,0 14,0 13 7 E 10
03.12.2019 10:00:00 20,0 14,0 11 6 E 10
03.12.2019 09:00:00 18,0 14,0 9 5 E 10
03.12.2019 08:00:00 17,0 14,0 5 3 SSE 10
03.12.2019 07:00:00 17,0 13,0 9 5 ESE 10
03.12.2019 06:00:00 17,0 13,0 13 7 ESE 10
03.12.2019 05:00:00 17,0 13,0 13 7 ESE 10
03.12.2019 04:00:00 17,0 13,0 16 9 ESE 10
03.12.2019 03:00:00 17,0 13,0 15 8 ESE 10
03.12.2019 02:00:00 17,0 13,0 13 7 SE 10
03.12.2019 01:00:00 17,0 13,0 9 5 ESE 10
03.12.2019 00:00:00 16,0 12,0 11 6 ENE 10
02.12.2019 23:00:00 16,0 12,0 15 8 E 10
02.12.2019 22:00:00 17,0 13,0 15 8 ESE 10
02.12.2019 21:00:00 16,0 13,0 15 8 ESE 10
02.12.2019 20:00:00 16,0 13,0 9 5 ESE 10
02.12.2019 19:00:00 16,0 13,0 8 4 E 10
02.12.2019 18:00:00 15,0 12,0 5 3 E 10
02.12.2019 17:00:00 17,0 13,0 8 4 SE 10
02.12.2019 16:00:00 18,0 13,0 9 5 S 10
02.12.2019 15:00:00 19,0 13,0 9 5 SSE 10
02.12.2019 14:00:00 19,0 14,0 11 6 SSE 10
02.12.2019 13:00:00 19,0 13,0 11 6 SSE 10
02.12.2019 12:00:00 18,0 13,0 13 7 SSE 10
02.12.2019 11:00:00 18,0 13,0 11 6 SE 10
02.12.2019 10:00:00 17,0 13,0 13 7 SE 10
02.12.2019 09:00:00 16,0 12,0 8 4 - 10
02.12.2019 08:00:00 15,0 11,0 15 8 ESE 10
02.12.2019 07:00:00 15,0 11,0 13 7 ESE 10
02.12.2019 06:00:00 14,0 11,0 11 6 ESE 10
02.12.2019 05:00:00 15,0 11,0 5 3 ESE 10
02.12.2019 04:00:00 15,0 10,0 13 7 ESE 10
02.12.2019 03:00:00 15,0 11,0 11 6 ESE 10
02.12.2019 02:00:00 14,0 11,0 11 6 ESE 10
02.12.2019 01:00:00 14,0 11,0 8 4 ESE 10
02.12.2019 00:00:00 13,0 11,0 9 5 E 10
01.12.2019 23:00:00 14,0 10,0 9 5 ESE 10
01.12.2019 22:00:00 14,0 10,0 9 5 ESE 10
01.12.2019 21:00:00 13,0 9,0 5 3 E 10
01.12.2019 20:00:00 12,0 8,0 8 4 E 10
01.12.2019 19:00:00 12,0 9,0 8 4 E 10
01.12.2019 18:00:00 12,0 9,0 5 3 E 10
01.12.2019 17:00:00 15,0 9,0 4 2 - 10
01.12.2019 16:00:00 17,0 8,0 8 4 SE 10
01.12.2019 15:00:00 19,0 7,0 5 3 SSE 10
01.12.2019 14:00:00 19,0 8,0 8 4 SSE 10
01.12.2019 13:00:00 19,0 7,0 9 5 ESE 10
01.12.2019 12:00:00 18,0 8,0 8 4 ESE 10
01.12.2019 11:00:00 17,0 9,0 9 5 SE 10

tt = Temperatura
td = dewpoint
ff = velocità del vento
dd = direzione del vento
vv = visibility

Stazioni seguenti

WeatherPro
AMSI
MeteoEarth